TimeEDT,TemperatureF,Dew PointF,Humidity,Sea Level PressureIn,VisibilityMPH,Wind Direction,Wind SpeedMPH,Gust SpeedMPH,PrecipitationIn,Events,Conditions,WindDirDegrees,DateUTC
12:51 AM,35.6,8.6,33,30.10,10.0,NW,15.0,-,N/A,,Partly Cloudy,310,2013-04-03 04:51:00
1:51 AM,36.0,5.0,27,30.11,10.0,NW,15.0,24.2,N/A,,Clear,310,2013-04-03 05:51:00
2:51 AM,35.1,7.0,31,30.11,10.0,WNW,17.3,25.3,N/A,,Clear,300,2013-04-03 06:51:00
3:51 AM,35.1,9.0,34,30.10,10.0,WNW,13.8,24.2,N/A,,Clear,300,2013-04-03 07:51:00
4:51 AM,34.0,9.0,35,30.12,10.0,WNW,17.3,26.5,N/A,,Clear,290,2013-04-03 08:51:00
5:51 AM,34.0,10.0,37,30.13,10.0,West,13.8,20.7,N/A,,Clear,280,2013-04-03 09:51:00
6:51 AM,34.0,10.0,37,30.16,10.0,West,17.3,26.5,N/A,,Partly Cloudy,280,2013-04-03 10:51:00
7:51 AM,35.1,10.0,35,30.17,10.0,WNW,17.3,-,N/A,,Partly Cloudy,290,2013-04-03 11:51:00
8:51 AM,37.0,10.9,34,30.18,10.0,WNW,13.8,21.9,N/A,,Partly Cloudy,290,2013-04-03 12:51:00
9:51 AM,37.9,10.0,32,30.17,10.0,West,18.4,25.3,N/A,,Partly Cloudy,270,2013-04-03 13:51:00
10:51 AM,39.9,10.9,31,30.16,10.0,West,16.1,25.3,N/A,,Partly Cloudy,270,2013-04-03 14:51:00
11:51 AM,42.1,10.9,28,30.17,10.0,West,20.7,26.5,N/A,,Partly Cloudy,260,2013-04-03 15:51:00
12:51 PM,44.1,10.0,25,30.15,10.0,West,21.9,28.8,N/A,,Partly Cloudy,280,2013-04-03 16:51:00
1:51 PM,44.6,5.0,20,30.12,10.0,WNW,19.6,-,N/A,,Partly Cloudy,300,2013-04-03 17:51:00
2:51 PM,48.0,7.0,19,30.11,10.0,WNW,19.6,28.8,N/A,,Partly Cloudy,300,2013-04-03 18:51:00
3:51 PM,46.9,7.0,20,30.11,10.0,WNW,21.9,32.2,N/A,,Partly Cloudy,290,2013-04-03 19:51:00
4:51 PM,46.9,3.9,17,30.12,10.0,WNW,20.7,32.2,N/A,,Scattered Clouds,290,2013-04-03 20:51:00
5:51 PM,46.0,3.9,18,30.14,10.0,WNW,20.7,-,N/A,,Partly Cloudy,300,2013-04-03 21:51:00
6:51 PM,43.0,3.0,19,30.19,10.0,NW,25.3,33.4,N/A,,Partly Cloudy,310,2013-04-03 22:51:00
7:51 PM,42.1,3.9,21,30.22,10.0,NW,18.4,26.5,N/A,,Partly Cloudy,310,2013-04-03 23:51:00
8:51 PM,41.0,5.0,23,30.25,10.0,NW,21.9,28.8,N/A,,Clear,320,2013-04-04 00:51:00
9:51 PM,39.0,7.0,27,30.27,10.0,NNW,23.0,-,N/A,,Clear,330,2013-04-04 01:51:00
10:51 PM,37.9,7.0,28,30.28,10.0,NW,18.4,35.7,N/A,,Clear,310,2013-04-04 02:51:00
11:51 PM,36.0,9.0,33,30.30,10.0,NNW,24.2,35.7,N/A,,Clear,330,2013-04-04 03:51:00